Welcome to the New NWS' Forecast!
Most changes are behind the scenes, but click here for differences you might notice.

Regional Weather Roundup (RWR)

Issued by National Weather Service (NWS)

                            
000
ASUS46 KSEW 150510
RWRWA 

WASHINGTON REGIONAL WEATHER ROUNDUP
NATIONAL WEATHER SERVICE SEATTLE WA
900 PM PST WED NOV 14 2018

NOTE:"FAIR" INDICATES FEW OR NO CLOUDS BELOW 12,000 FEET WITH NO 
SIGNIFICANT WEATHER AND/OR OBSTRUCTIONS TO VISIBILITY.

WAZ507-509-555>559-150600-
SEATTLE, TACOMA, EVERETT, AND VICINITY
  
CITY           SKY/WX    TMP DP  RH WIND       PRES   REMARKS
EVERETT        CLOUDY    51  49  92 SE6       30.36R                  
BOEING FIELD   CLOUDY    53  47  79 S6        30.37R                  
RENTON         CLOUDY    54  47  77 S6        30.37R                  
SEATAC AIRPORT CLOUDY    52  47  83 SE6       30.37R                  
JBLM-MCCHORD   MOCLDY    48  48 100 SE3       30.37R                  
PUYALLUP       CLOUDY    48  48 100 CALM      30.37R                  
BREMERTON      CLOUDY    49  49 100 CALM      30.36R FOG              
JBLM-FT LEWIS  MOCLDY    47  47 100 SE9       30.36R                  
TACOMA NARROWS CLOUDY    49  46  90 S7        30.37R                  
$$
 
WAZ001-503-506-510-514-515-150600-
NORTH INTERIOR
  
CITY           SKY/WX    TMP DP  RH WIND       PRES   REMARKS
BELLINGHAM     PTCLDY    51  46  83 S7        30.34R                  
FRIDAY HARBOR  CLEAR     49  46  90 SE7       30.35S FOG              
EASTSOUND      CLEAR     50  48  93 S10       30.32R                  
PORT ANGELES   MOCLDY    48  45  89 W5        30.36R                  
EDIZ HOOK      MOCLDY    49  47  94 W3        30.36R                  
PORT TOWNSEND  CLOUDY    45  45 100 CALM      30.36R FOG              
NAS WHIDBEY    LGT RAIN  53  47  79 S3        30.40R                  
ARLINGTON      CLOUDY    47  47 100 N3        30.36S FOG              
BURLINGTON     CLOUDY    48  46  93 CALM      30.36R FOG              
$$
 
WAZ020-022-039-040-504-511-512-150600-
SOUTHWEST INTERIOR
  
CITY           SKY/WX    TMP DP  RH WIND       PRES   REMARKS
SHELTON        MOCLDY    52  50  93 SW5       30.34R                  
OLYMPIA        CLOUDY    47  45  93 SW5       30.38R                  
CHEHALIS       MOCLDY    45  45 100 W5        30.39R FOG              
KELSO          CLOUDY    48  32  53 SE6       30.41S HAZE             
VANCOUVER      CLOUDY    47  46  97 CALM      30.41R FOG              
SCAPPOOSE, OR  CLOUDY    47  45  93 CALM      30.41S FOG              
PORTLAND, OR   CLOUDY    47  46  97 CALM      30.42R FOG              
$$
 
WAZ021-516-517-150600-
WASHINGTON COAST
  
CITY           SKY/WX    TMP DP  RH WIND       PRES   REMARKS
FORKS          FOG       48  48 100 CALM      30.35S VSB 3/4          
HOQUIAM        CLOUDY    52  51  97 VRB3      30.38R                  
ASTORIA, OR    CLOUDY    49  49 100 CALM      30.38S FOG              
$$
 
WAZ019-023-024-040-567>569-150600-
CASCADE MOUNTAINS AND COLUMBIA GORGE
  
CITY           SKY/WX    TMP DP  RH WIND       PRES   REMARKS
STAMPEDE PASS  FOG       40  38  93 VRB7      30.31R VSB 1/4          
TROUTDALE, OR  CLOUDY    47  45  93 CALM      30.41S FOG              
HOOD RIVER, OR MOCLDY    43  41  93 S5        30.38R                  
THE DALLES, OR MOCLDY    50  44  80 NW8       30.36R                  
$$

WAZ026-027-041>044-520-521-150600-
EAST SLOPES
  
CITY           SKY/WX    TMP DP  RH WIND       PRES   REMARKS
OMAK           CLOUDY    32  30  92 CALM      30.37S                  
WENATCHEE      CLOUDY    32  29  88 CALM      30.37R                  
ELLENSBURG     MOCLDY    47  37  68 CALM      30.32R                  
YAKIMA         CLOUDY    28  24  85 CALM      30.37R FOG              
SUNNYSIDE ARPT CLOUDY    32  30  94 W3        30.37  FOG              
YAKIMA TC      FAIR      33  30  88 CALM      30.34R                  
$$

WAZ028-034-035-150600-
COLUMBIA BASIN
  
CITY           SKY/WX    TMP DP  RH WIND       PRES   REMARKS
EPHRATA        CLOUDY    32  31  96 CALM      30.36S FOG              
MOSES LAKE     CLOUDY    32  29  88 N6        30.38R                  
PASCO          CLOUDY    33  28  81 CALM      30.38R                  
RICHLAND ARPT  CLOUDY    33  31  93 W6        30.38                   
HERMISTON, OR  CLOUDY    39  32  76 SE3       30.35R                  
$$

WAZ036>038-150600-
NORTHEAST WASHINGTON
  
CITY           SKY/WX    TMP DP  RH WIND       PRES   REMARKS
SPOKANE GEIGER CLOUDY    34  27  75 S6        30.30S                  
SPOKANE FELTS  MOCLDY    36  30  79 CALM      30.31S                  
FAIRCHILD AFB  PTCLDY    32  32  98 CALM      30.29S                  
COEURDALENE,ID PTCLDY    34  29  82 SW5       30.31R                  
DEER PARK      PTCLDY    25  23  92 NE3       30.32R FOG              
$$

WAZ029>033-150600-
SOUTHEAST WASHINGTON
  
CITY           SKY/WX    TMP DP  RH WIND       PRES   REMARKS
PULLMAN        CLOUDY    47  34  60 W8        30.33R                  
LEWISTON, ID   CLOUDY    46  33  60 CALM      30.33R                  
WALLA WALLA    CLOUDY    48  36  63 SW8       30.35R                  
PENDLETON, OR  CLOUDY    42  31  64 SE5       30.35R                  
$$